EW5925 Weather Reports


time (UTC)temp
C
wind
direction
speed
KPH
gust
KPH
rain 1hr
cm
rain 24hr
cm
rain mn
cm
humidity
%
barometer
mb
20260507232543 17 238 1.6 8.0 0.00 0.00 0.00 40 1021.0
20260507232043 17 232 3.2 12.9 0.00 0.00 0.00 43 1020.9
20260507231543 17 231 4.8 14.5 0.00 0.00 0.00 41 1021.0
20260507231043 17 198 3.2 14.5 0.00 0.00 0.00 42 1020.9
20260507230543 17 166 1.6 8.0 0.00 0.00 0.00 44 1020.8
20260507230053 16 158 1.6 8.0 0.00 0.00 0.00 45 1020.8
20260507225539 16 228 3.2 8.0 0.00 0.00 0.00 48 1020.8
20260507225038 16 250 3.2 8.0 0.00 0.00 0.00 49 1020.8
20260507224800 16 249 1.6 8.0 0.00 0.00 0.00 50 1020.9
20260507224251 15 248 1.6 8.0 0.00 0.00 0.00 51 1020.8
20260507223752 15 248 4.8 14.5 0.00 0.00 0.00 51 1020.9
20260507223031 15 240 4.8 14.5 0.00 0.00 0.00 51 1020.8
20260507222751 15 237 3.2 12.9 0.00 0.00 0.00 53 1020.8
20260507222234 14 190 3.2 12.9 0.00 0.00 0.00 54 1020.7
20260507221514 14 237 3.2 12.9 0.00 0.00 0.00 56 1020.6
20260507220956 13 249 3.2 11.3 0.00 0.00 0.00 56 1020.6
20260507220458 13 244 3.2 11.3 0.00 0.00 0.00 58 1020.4
20260507215954 13 239 1.6 9.7 0.00 0.00 0.00 60 1020.4
20260507215721 13 239 1.6 9.7 0.00 0.00 0.00 60 1020.5
20260507214954 12 240 3.2 8.0 0.00 0.00 0.00 61 1020.3
20260507214452 12 249 3.2 9.7 0.00 0.00 0.00 62 1020.3
20260507213953 12 237 3.2 9.7 0.00 0.00 0.00 63 1020.3
20260507213452 12 222 3.2 8.0 0.00 0.00 0.00 64 1020.3
20260507213444 11 245 3.2 9.7 0.00 0.00 0.00 65 1020.3
20260507212453 11 247 3.2 9.7 0.00 0.00 0.00 65 1020.3
20260507211953 11 247 3.2 9.7 0.00 0.00 0.00 65 1020.2
20260507211453 11 238 3.2 8.0 0.00 0.00 0.00 65 1020.2
20260507210954 11 210 3.2 11.3 0.00 0.00 0.00 65 1020.0
20260507210447 11 251 3.2 11.3 0.00 0.00 0.00 66 1020.1
20260507210209 11 166 3.2 11.3 0.00 0.00 0.00 66 1020.0
20260507205704 11 296 3.2 11.3 0.00 0.00 0.00 66 1019.9
20260507205206 11 242 1.6 9.7 0.00 0.00 0.00 67 1019.7
20260507204443 11 257 1.6 8.0 0.00 0.00 0.00 67 1019.7
20260507203942 11 233 1.6 6.4 0.00 0.00 0.00 68 1019.7
20260507203659 11 258 1.6 9.7 0.00 0.00 0.00 68 1019.7
20260507202936 11 258 1.6 9.7 0.00 0.00 0.00 68 1019.7
20260507202435 11 237 1.6 8.0 0.00 0.00 0.00 67 1019.6
20260507201933 11 206 3.2 11.3 0.00 0.00 0.00 67 1019.7
20260507201432 11 206 3.2 11.3 0.00 0.00 0.00 67 1019.5
20260507200925 11 224 3.2 9.7 0.00 0.00 0.00 67 1019.6
20260507200423 11 241 3.2 9.7 0.00 0.00 0.00 68 1019.5
20260507195920 11 226 3.2 6.4 0.00 0.00 0.00 68 1019.3
20260507195423 11 206 1.6 6.4 0.00 0.00 0.00 69 1019.3
20260507194911 11 226 1.6 8.0 0.00 0.00 0.00 68 1019.2
20260507194409 11 247 1.6 8.0 0.00 0.00 0.00 69 1019.1
20260507193907 11 243 1.6 8.0 0.00 0.00 0.00 69 1019.1
20260507193405 11 224 1.6 9.7 0.00 0.00 0.00 69 1019.0
20260507192905 11 235 1.6 9.7 0.00 0.00 0.00 69 1019.1
20260507192600 11 251 1.6 6.4 0.00 0.00 0.00 70 1018.9
20260507192447 11 236 1.6 8.0 0.00 0.00 0.00 70 1018.9
20260507191359 11 233 1.6 6.4 0.00 0.00 0.00 70 1018.9
20260507190857 11 240 1.6 6.4 0.00 0.00 0.00 70 1018.8
20260507190354 11 240 1.6 6.4 0.00 0.00 0.00 70 1018.6
20260507190337 11 237 1.6 4.8 0.00 0.00 0.00 70 1018.6
20260507185351 11 237 1.6 6.4 0.00 0.00 0.00 69 1018.5
20260507184848 12 237 1.6 8.0 0.00 0.00 0.00 69 1018.4
20260507184618 12 237 1.6 8.0 0.00 0.00 0.00 69 1018.2
20260507183840 12 227 1.6 6.4 0.00 0.00 0.00 69 1018.3
20260507183339 12 226 1.6 6.4 0.00 0.00 0.00 70 1018.2
20260507182837 12 231 1.6 8.0 0.00 0.00 0.00 70 1018.1
20260507182339 12 232 1.6 8.0 0.00 0.00 0.00 69 1018.2
20260507181830 12 245 1.6 9.7 0.00 0.00 0.00 69 1018.2
20260507181341 12 245 1.6 9.7 0.00 0.00 0.00 68 1018.1
20260507181049 12 257 0.0 4.8 0.00 0.00 0.00 69 1018.0
20260507180326 12 257 1.6 4.8 0.00 0.00 0.00 68 1018.0
20260507175826 12 257 1.6 8.0 0.00 0.00 0.00 69 1017.8
20260507175549 12 257 1.6 8.0 0.00 0.00 0.00 68 1017.8
20260507174822 12 235 1.6 3.2 0.00 0.00 0.00 68 1017.6
20260507174321 12 235 1.6 4.8 0.00 0.00 0.00 67 1017.8
20260507173816 12 237 1.6 4.8 0.00 0.00 0.00 68 1017.7
20260507173535 12 237 1.6 4.8 0.00 0.00 0.00 67 1017.7
20260507172816 12 237 1.6 8.0 0.00 0.00 0.00 67 1017.6
20260507172331 13 237 1.6 8.0 0.00 0.00 0.00 66 1017.7
20260507171750 13 245 0.0 3.2 0.00 0.00 0.00 66 1017.8
20260507171226 13 245 0.0 3.2 0.00 0.00 0.00 67 1017.5
20260507170922 13 245 1.6 8.0 0.00 0.00 0.00 66 1017.6
20260507170134 13 245 1.6 8.0 0.00 0.00 0.00 66 1017.5
20260507165610 13 242 0.0 4.8 0.00 0.00 0.00 65 1017.5
20260507165306 13 242 0.0 4.8 0.00 0.00 0.00 65 1017.6
20260507164516 13 242 1.6 4.8 0.00 0.00 0.00 65 1017.6
20260507163950 13 242 0.0 6.4 0.00 0.00 0.00 65 1017.5
20260507163425 13 242 0.0 6.4 0.00 0.00 0.00 65 1017.6
20260507163137 13 242 1.6 6.4 0.00 0.00 0.00 65 1017.3
20260507162411 13 242 1.6 6.4 0.00 0.00 0.00 63 1017.5
20260507162130 14 242 1.6 6.4 0.00 0.00 0.00 63 1017.4
20260507161406 14 242 1.6 6.4 0.00 0.00 0.00 63 1017.3
20260507160906 14 242 0.0 4.8 0.00 0.00 0.00 63 1017.5
20260507160404 14 242 1.6 4.8 0.00 0.00 0.00 63 1017.4
20260507155904 14 242 1.6 4.8 0.00 0.00 0.00 61 1017.4
20260507155400 14 242 0.0 3.2 0.00 0.00 0.00 62 1017.4
20260507154859 15 242 0.0 4.8 0.00 0.00 0.00 60 1017.3
20260507154352 15 242 1.6 9.7 0.00 0.00 0.00 60 1017.4
20260507153851 15 242 1.6 9.7 0.00 0.00 0.00 60 1017.4
20260507153349 15 255 1.6 9.7 0.00 0.00 0.00 60 1017.4
20260507153331 15 255 1.6 9.7 0.00 0.00 0.00 60 1017.2
20260507152346 15 222 3.2 8.0 0.00 0.00 0.00 59 1017.4
20260507151848 15 224 3.2 14.5 0.00 0.00 0.00 59 1017.2
20260507151558 15 237 3.2 14.5 0.00 0.00 0.00 58 1017.2
20260507150833 15 231 1.6 8.0 0.00 0.00 0.00 58 1017.2
20260507150552 15 204 1.6 6.4 0.00 0.00 0.00 58 1017.1
20260507145823 15 204 1.6 6.4 0.00 0.00 0.00 57 1017.2
20260507145541 15 204 1.6 6.4 0.00 0.00 0.00 57 1017.1
20260507144820 15 238 1.6 6.4 0.00 0.00 0.00 57 1017.0
20260507144318 15 238 1.6 8.0 0.00 0.00 0.00 56 1017.2
20260507144042 16 243 1.6 8.0 0.00 0.00 0.00 57 1017.0
20260507143317 16 266 1.6 8.0 0.00 0.00 0.00 57 1016.8
20260507142812 16 245 1.6 8.0 0.00 0.00 0.00 56 1017.1
20260507142532 16 248 3.2 9.7 0.00 0.00 0.00 56 1017.0
20260507141810 16 236 3.2 9.7 0.00 0.00 0.00 55 1017.1
20260507141311 16 200 1.6 8.0 0.00 0.00 0.00 55 1017.2
20260507140744 16 200 3.2 8.0 0.00 0.00 0.00 54 1017.3
20260507140219 16 165 1.6 6.4 0.00 0.00 0.00 53 1017.2
20260507135342 16 193 1.6 8.0 0.00 0.00 0.00 53 1017.3
20260507134556 16 193 1.6 8.0 0.00 0.00 0.00 52 1017.2
20260507134044 16 193 1.6 8.0 0.00 0.00 0.00 52 1017.3
20260507133545 16 193 3.2 9.7 0.00 0.00 0.00 52 1017.2
20260507133018 16 210 3.2 9.7 0.00 0.00 0.00 52 1017.3
20260507132452 16 195 3.2 8.0 0.00 0.00 0.00 53 1017.2
20260507131928 16 229 1.6 8.0 0.00 0.00 0.00 53 1017.2
20260507131626 16 284 1.6 4.8 0.00 0.00 0.00 53 1017.3
20260507130832 17 288 1.6 4.8 0.00 0.00 0.00 54 1017.2
20260507130309 17 296 1.6 11.3 0.00 0.00 0.00 54 1017.2
20260507125743 17 257 1.6 11.3 0.00 0.00 0.00 54 1017.1
20260507125214 17 237 1.6 4.8 0.00 0.00 0.00 54 1017.1
20260507124649 17 237 1.6 6.4 0.00 0.00 0.00 54 1017.2
20260507124346 17 236 1.6 6.4 0.00 0.00 0.00 53 1017.2
20260507124038 17 252 1.6 8.0 0.00 0.00 0.00 53 1017.1
20260507123536 17 252 1.6 8.0 0.00 0.00 0.00 53 1017.0
20260507122502 17 257 1.6 6.4 0.00 0.00 0.00 53 1017.1
20260507121935 17 299 1.6 8.0 0.00 0.00 0.00 53 1017.0
20260507121409 17 333 1.6 8.0 0.00 0.00 0.00 52 1017.0
20260507120847 17 354 1.6 6.4 0.00 0.00 0.00 53 1017.0
20260507120543 17 319 1.6 8.0 0.00 0.00 0.00 52 1016.9
20260507115757 17 243 1.6 8.0 0.00 0.00 0.00 52 1016.9
20260507115227 17 300 1.6 4.8 0.00 0.00 0.00 53 1016.7
20260507114705 17 300 1.6 16.1 0.00 0.00 0.00 53 1016.7
20260507114206 17 306 1.6 16.1 0.00 0.00 0.00 53 1016.8
20260507113705 17 299 1.6 4.8 0.00 0.00 0.00 53 1016.8
20260507113202 17 299 1.6 11.3 0.00 0.00 0.00 53 1016.8
20260507112656 17 311 1.6 11.3 0.00 0.00 0.00 53 1016.7
20260507112154 17 322 0.0 4.8 0.00 0.00 0.00 54 1016.7
20260507111651 18 323 0.0 1.6 0.00 0.00 0.00 54 1016.7
20260507111428 18 323 0.0 4.8 0.00 0.00 0.00 53 1016.7
20260507110650 18 323 0.0 4.8 0.00 0.00 0.00 53 1016.7
20260507110144 18 319 1.6 8.0 0.00 0.00 0.00 53 1016.5
20260507105904 18 319 1.6 8.0 0.00 0.00 0.00 53 1016.3
20260507105140 18 252 0.0 3.2 0.00 0.00 0.00 54 1016.5
20260507104909 18 252 0.0 3.2 0.00 0.00 0.00 52 1016.3
20260507104408 18 252 1.6 4.8 0.00 0.00 0.00 51 1016.3
20260507103634 18 252 1.6 4.8 0.00 0.00 0.00 51 1016.2
20260507103134 18 318 1.6 12.9 0.00 0.00 0.00 51 1016.0
20260507102634 18 315 1.6 12.9 0.00 0.00 0.00 52 1015.8
20260507102132 18 249 1.6 12.9 0.00 0.00 0.00 52 1015.8
20260507101631 18 248 1.6 12.9 0.00 0.00 0.00 51 1015.8
20260507101132 19 322 0.0 4.8 0.00 0.00 0.00 52 1015.8
20260507100628 19 322 0.0 4.8 0.00 0.00 0.00 51 1015.8
20260507100126 19 322 0.0 4.8 0.00 0.00 0.00 50 1015.7
20260507095622 19 322 1.6 4.8 0.00 0.00 0.00 50 1015.6
20260507095120 19 322 1.6 3.2 0.00 0.00 0.00 50 1015.4
20260507094619 20 322 0.0 6.4 0.00 0.00 0.00 50 1015.4
20260507094120 20 322 0.0 6.4 0.00 0.00 0.00 49 1015.5
20260507093621 20 313 1.6 6.4 0.00 0.00 0.00 48 1015.5
20260507093054 20 313 3.2 9.7 0.00 0.00 0.00 47 1015.5
20260507092553 20 294 1.6 9.7 0.00 0.00 0.00 47 1015.4
20260507092050 20 217 0.0 4.8 0.00 0.00 0.00 47 1015.4
20260507091548 20 216 0.0 1.6 0.00 0.00 0.00 47 1015.4
20260507091048 20 216 0.0 4.8 0.00 0.00 0.00 46 1015.4
20260507090559 21 216 0.0 4.8 0.00 0.00 0.00 45 1015.2
20260507090056 21 216 1.6 4.8 0.00 0.00 0.00 45 1015.2
20260507085542 21 216 1.6 6.4 0.00 0.00 0.00 46 1015.1
20260507085040 21 252 1.6 6.4 0.00 0.00 0.00 45 1015.0
20260507084538 21 291 1.6 4.8 0.00 0.00 0.00 44 1015.0
20260507084037 21 260 1.6 4.8 0.00 0.00 0.00 44 1014.9
20260507083534 21 272 1.6 6.4 0.00 0.00 0.00 44 1014.9
20260507083027 21 314 1.6 6.4 0.00 0.00 0.00 43 1014.9
20260507082526 21 220 1.6 11.3 0.00 0.00 0.00 43 1014.8
20260507082024 21 284 3.2 11.3 0.00 0.00 0.00 44 1014.7
20260507081525 21 331 1.6 8.0 0.00 0.00 0.00 43 1014.5
20260507081004 22 288 1.6 4.8 0.00 0.00 0.00 42 1014.4
20260507080505 22 267 1.6 4.8 0.00 0.00 0.00 43 1014.3
20260507075942 22 267 1.6 3.2 0.00 0.00 0.00 42 1014.3
20260507075440 22 267 1.6 12.9 0.00 0.00 0.00 42 1014.3
20260507074940 22 268 1.6 12.9 0.00 0.00 0.00 41 1014.3
20260507074436 22 26 1.6 11.3 0.00 0.00 0.00 42 1014.3
20260507073935 22 270 3.2 11.3 0.00 0.00 0.00 42 1014.2
20260507073441 22 258 1.6 12.9 0.00 0.00 0.00 44 1014.0
20260507072933 22 208 1.6 12.9 0.00 0.00 0.00 45 1014.0
20260507072433 22 308 0.0 3.2 0.00 0.00 0.00 45 1013.9
20260507071927 22 308 0.0 3.2 0.00 0.00 0.00 45 1013.8
20260507071643 23 308 0.0 3.2 0.00 0.00 0.00 45 1013.7
20260507070922 23 308 1.6 11.3 0.00 0.00 0.00 44 1013.5
20260507070643 23 308 3.2 11.3 0.00 0.00 0.00 44 1013.5
20260507065919 23 333 3.2 16.1 0.00 0.00 0.00 45 1013.4
20260507065642 23 303 4.8 16.1 0.00 0.00 0.00 44 1013.2
20260507064922 23 313 3.2 11.3 0.00 0.00 0.00 45 1013.3
20260507064402 23 306 3.2 11.3 0.00 0.00 0.00 44 1013.4
20260507064123 23 317 3.2 12.9 0.00 0.00 0.00 44 1013.4
20260507063404 23 272 3.2 12.9 0.00 0.00 0.00 44 1013.4
20260507062901 23 318 3.2 12.9 0.00 0.00 0.00 45 1013.4
20260507062401 23 316 3.2 12.9 0.00 0.00 0.00 45 1013.3
20260507061900 24 301 1.6 12.9 0.00 0.00 0.00 46 1013.3
20260507061358 24 318 1.6 12.9 0.00 0.00 0.00 47 1013.3
20260507060856 24 297 1.6 12.9 0.00 0.00 0.00 46 1013.2
20260507060354 24 322 1.6 12.9 0.00 0.00 0.00 46 1013.2
20260507055855 25 313 1.6 12.9 0.00 0.00 0.00 47 1013.1
20260507055353 25 229 3.2 14.5 0.00 0.00 0.00 45 1013.2
20260507054853 25 315 1.6 14.5 0.00 0.00 0.00 46 1013.1
20260507054350 25 342 1.6 8.0 0.00 0.00 0.00 46 1013.1
20260507053850 25 317 3.2 6.4 0.00 0.00 0.00 48 1013.0
20260507053615 25 289 3.2 12.9 0.00 0.00 0.00 47 1012.8
20260507053114 25 278 3.2 12.9 0.00 0.00 0.00 47 1012.7
20260507052549 26 299 3.2 11.3 0.00 0.00 0.00 49 1012.9
20260507051826 26 328 3.2 11.3 0.00 0.00 0.00 48 1012.8
20260507051325 25 311 3.2 14.5 0.00 0.00 0.00 49 1012.8
20260507050821 25 333 3.2 14.5 0.00 0.00 0.00 49 1012.9
20260507050320 25 313 3.2 14.5 0.00 0.00 0.00 49 1012.9
20260507045818 26 278 3.2 14.5 0.00 0.00 0.00 49 1012.9
20260507045315 26 333 3.2 12.9 0.00 0.00 0.00 49 1012.9
20260507044813 26 259 3.2 12.9 0.00 0.00 0.00 48 1013.0
20260507044311 26 339 1.6 12.9 0.00 0.00 0.00 50 1013.1
20260507043810 26 298 3.2 12.9 0.00 0.00 0.00 50 1013.2
20260507043527 26 322 3.2 17.7 0.00 0.00 0.00 50 1013.3
20260507042805 26 262 3.2 17.7 0.00 0.00 0.00 50 1013.3
20260507042307 26 305 4.8 17.7 0.00 0.00 0.00 51 1013.3
20260507041758 26 310 4.8 17.7 0.00 0.00 0.00 49 1013.3
20260507041255 26 310 3.2 12.9 0.00 0.00 0.00 51 1013.4
20260507040755 26 314 3.2 9.7 0.00 0.00 0.00 52 1013.2
20260507040257 26 239 3.2 9.7 0.00 0.00 0.00 52 1013.3
20260507035735 26 258 3.2 17.7 0.00 0.00 0.00 53 1013.5
20260507035237 26 295 3.2 19.3 0.00 0.00 0.00 52 1013.4
20260507034955 26 280 3.2 19.3 0.00 0.00 0.00 52 1013.3
20260507034233 26 242 3.2 9.7 0.00 0.00 0.00 53 1013.3
20260507033733 26 269 3.2 11.3 0.00 0.00 0.00 53 1013.3
20260507033228 26 266 3.2 11.3 0.00 0.00 0.00 54 1013.2
20260507032726 26 335 3.2 11.3 0.00 0.00 0.00 55 1013.3
20260507032223 26 306 3.2 12.9 0.00 0.00 0.00 54 1013.4
20260507031723 26 250 3.2 14.5 0.00 0.00 0.00 55 1013.5
20260507031220 27 295 3.2 12.9 0.00 0.00 0.00 55 1013.5
20260507030716 27 268 3.2 11.3 0.00 0.00 0.00 55 1013.6
20260507030211 27 266 3.2 11.3 0.00 0.00 0.00 58 1013.5
20260507025709 27 256 3.2 11.3 0.00 0.00 0.00 58 1013.4
20260507025207 27 336 3.2 11.3 0.00 0.00 0.00 58 1013.5
20260507024720 27 308 3.2 14.5 0.00 0.00 0.00 59 1013.6
20260507024210 26 325 3.2 14.5 0.00 0.00 0.00 60 1013.7
20260507023641 26 225 3.2 14.5 0.00 0.00 0.00 61 1013.6
20260507023114 26 330 4.8 14.5 0.00 0.00 0.00 61 1013.8
20260507022547 27 277 4.8 12.9 0.00 0.00 0.00 61 1013.8
20260507022242 27 305 4.8 16.1 0.00 0.00 0.00 63 1014.0
20260507021458 27 315 4.8 16.1 0.00 0.00 0.00 64 1014.3
20260507021159 26 247 3.2 11.3 0.00 0.00 0.00 65 1014.3
20260507020407 26 328 3.2 9.7 0.00 0.00 0.00 67 1014.4
20260507015841 26 260 3.2 12.9 0.00 0.00 0.00 68 1014.4
20260507015314 26 250 3.2 14.5 0.00 0.00 0.00 68 1014.5
20260507014753 26 289 3.2 14.5 0.00 0.00 0.00 67 1014.5
20260507014256 26 257 3.2 12.9 0.00 0.00 0.00 67 1014.7
20260507013727 26 308 3.2 11.3 0.00 0.00 0.00 67 1014.8
20260507013200 26 291 4.8 20.9 0.00 0.00 0.00 68 1014.8
20260507012634 26 236 4.8 20.9 0.00 0.00 0.00 68 1015.0
20260507012118 26 314 3.2 12.9 0.00 0.00 0.00 70 1015.1
20260507011538 26 316 3.2 9.7 0.00 0.00 0.00 72 1015.1
20260507011231 25 226 3.2 8.0 0.00 0.00 0.00 73 1015.2
20260507010449 25 249 3.2 14.5 0.00 0.00 0.00 73 1015.2
20260507005926 25 274 3.2 14.5 0.00 0.00 0.00 74 1015.3
20260507005357 24 292 1.6 12.9 0.00 0.00 0.00 76 1015.4
20260507004828 24 252 1.6 8.0 0.00 0.00 0.00 77 1015.5
20260507004302 23 243 3.2 8.0 0.00 0.00 0.00 79 1015.6
20260507003736 23 252 1.6 8.0 0.00 0.00 0.00 80 1015.6
20260507003235 23 306 1.6 8.0 0.00 0.00 0.00 81 1015.6
20260507002731 22 300 1.6 4.8 0.00 0.00 0.00 81 1015.7
20260507002230 22 300 1.6 6.4 0.00 0.00 0.00 81 1015.9
20260507001729 22 300 1.6 9.7 0.00 0.00 0.00 82 1015.9
20260507001450 22 256 1.6 9.7 0.00 0.00 0.00 82 1016.0
20260507000943 22 317 3.2 9.7 0.00 0.00 0.00 82 1016.2
20260507000223 22 306 3.2 9.7 0.00 0.00 0.00 82 1016.2
20260506235718 22 323 1.6 9.7 0.00 0.00 0.00 83 1016.5
20260506235218 22 282 1.6 6.4 0.00 0.00 0.00 84 1016.6
20260506234721 22 303 1.6 6.4 0.00 0.00 0.00 84 1016.7
20260506234220 22 251 1.6 6.4 0.00 0.00 0.00 85 1016.6
20260506233710 22 249 1.6 6.4 0.00 0.00 0.00 85 1016.8
20260506233211 21 263 1.6 6.4 0.00 0.00 0.00 85 1016.8